When you browse on this site, cookies collect data to enhance your experience and personalize the content and advertising you see.
Visit our Privacy Policy to learn more. By continuing to use the site, you agree to this use of cookies and data.
  • In Germany
  • List of Countries
  • For 7 days
  • Water Temperature
  • Weather Map
  • Weather Widgets
  • user-avatar
    Login

    Hourly Weather La Massana

    Today, 27 May, Wednesday

    Time Temperature Precipitation Wind Pressure Humidity
    00:00 +6°C° 0 mm 2 mps 616 mmHg 73%
    01:00 +7°C° 0 mm 1 mps 616 mmHg 69%
    02:00 +7°C° 0 mm 1 mps 615 mmHg 65%
    03:00 +7°C° 0 mm 1 mps 615 mmHg 61%
    04:00 +8°C° 0 mm 1 mps 616 mmHg 62%
    05:00 +9°C° 0 mm 1 mps 616 mmHg 63%
    06:00 +10°C° 0 mm 1 mps 617 mmHg 64%
    07:00 +12°C° 0 mm 1 mps 618 mmHg 57%
    08:00 +14°C° 0 mm 1 mps 619 mmHg 50%
    09:00 +18°C° 0 mm 1 mps 621 mmHg 43%
    10:00 +18°C° 0 mm 1 mps 621 mmHg 43%
    11:00 +18°C° 0 mm 2 mps 621 mmHg 43%
    12:00 +19°C° 0 mm 2 mps 621 mmHg 42%
    13:00 +18°C° 0.2 mm 2 mps 620 mmHg 51%
    14:00 +17°C° 0.2 mm 2 mps 620 mmHg 59%
    15:00 +16°C° 0.2 mm 2 mps 619 mmHg 67%
    16:00 +15°C° 0.7 mm 1 mps 619 mmHg 74%
    17:00 +14°C° 0.7 mm 1 mps 618 mmHg 80%
    18:00 +13°C° 0.7 mm 1 mps 618 mmHg 87%
    19:00 +12°C° 0.2 mm 1 mps 618 mmHg 90%
    20:00 +11°C° 0.2 mm 1 mps 618 mmHg 93%
    21:00 +10°C° 0.2 mm 1 mps 618 mmHg 96%
    22:00 +9°C° 0 mm 1 mps 617 mmHg 95%
    23:00 +9°C° 0 mm 1 mps 617 mmHg 95%

    Tomorrow, 28 May, Thursday

    Time Temperature Precipitation Wind Pressure Humidity
    00:00 +9°C° 0 mm 1 mps 617 mmHg 94%
    01:00 +9°C° 0 mm 1 mps 617 mmHg 94%
    02:00 +9°C° 0 mm 1 mps 617 mmHg 93%
    03:00 +9°C° 0 mm 1 mps 616 mmHg 92%
    04:00 +9°C° 0 mm 1 mps 616 mmHg 89%
    05:00 +9°C° 0 mm 1 mps 616 mmHg 86%
    06:00 +10°C° 0 mm 1 mps 616 mmHg 83%
    07:00 +12°C° 0 mm 1 mps 617 mmHg 71%
    08:00 +14°C° 0 mm 1 mps 618 mmHg 58%
    09:00 +16°C° 0 mm 1 mps 619 mmHg 46%
    10:00 +18°C° 0 mm 1 mps 619 mmHg 44%
    11:00 +19°C° 0 mm 1 mps 619 mmHg 42%
    12:00 +18°C° 0 mm 2 mps 619 mmHg 40%
    13:00 +18°C° 0.2 mm 2 mps 618 mmHg 46%
    14:00 +17°C° 0.2 mm 2 mps 618 mmHg 52%
    15:00 +16°C° 0.2 mm 2 mps 617 mmHg 58%
    16:00 +15°C° 0.4 mm 1 mps 616 mmHg 64%
    17:00 +14°C° 0.4 mm 1 mps 616 mmHg 71%
    18:00 +14°C° 0.4 mm 1 mps 615 mmHg 77%
    19:00 +12°C° 0 mm 1 mps 615 mmHg 82%
    20:00 +11°C° 0 mm 1 mps 614 mmHg 87%
    21:00 +9°C° 0 mm 1 mps 614 mmHg 91%
    22:00 +9°C° 0 mm 1 mps 613 mmHg 90%
    23:00 +8°C° 0 mm 1 mps 613 mmHg 88%

    Day after tomorrow, 29 May, Friday

    Time Temperature Precipitation Wind Pressure Humidity
    00:00 +8°C° 0 mm 1 mps 613 mmHg 86%
    01:00 +8°C° 0 mm 1 mps 612 mmHg 84%
    02:00 +7°C° 0 mm 1 mps 612 mmHg 81%
    03:00 +7°C° 0 mm 1 mps 612 mmHg 78%
    04:00 +8°C° 0 mm 1 mps 612 mmHg 76%
    05:00 +9°C° 0 mm 1 mps 612 mmHg 73%
    06:00 +10°C° 0 mm 1 mps 613 mmHg 71%
    07:00 +13°C° 0 mm 1 mps 613 mmHg 59%
    08:00 +15°C° 0 mm 1 mps 614 mmHg 48%
    09:00 +18°C° 0 mm 1 mps 615 mmHg 37%
    10:00 +19°C° 0 mm 1 mps 615 mmHg 36%
    11:00 +20°C° 0 mm 1 mps 615 mmHg 34%
    12:00 +20°C° 0 mm 2 mps 615 mmHg 33%
    13:00 +19°C° 0.1 mm 2 mps 615 mmHg 37%
    14:00 +19°C° 0.1 mm 2 mps 614 mmHg 41%
    15:00 +19°C° 0.1 mm 2 mps 614 mmHg 44%
    16:00 +17°C° 0.4 mm 2 mps 613 mmHg 55%
    17:00 +16°C° 0.4 mm 1 mps 612 mmHg 65%
    18:00 +14°C° 0.4 mm 1 mps 611 mmHg 75%
    19:00 +13°C° 0.1 mm 1 mps 611 mmHg 81%
    20:00 +11°C° 0.1 mm 1 mps 610 mmHg 86%
    21:00 +10°C° 0.1 mm 1 mps 610 mmHg 92%
    22:00 +9°C° 0 mm 1 mps 610 mmHg 92%
    23:00 +9°C° 0 mm 1 mps 610 mmHg 92%

    30 May, Saturday

    Time Temperature Precipitation Wind Pressure Humidity
    00:00 +9°C° 0 mm 1 mps 609 mmHg 92%
    01:00 +8°C° 0 mm 1 mps 609 mmHg 91%
    02:00 +8°C° 0 mm 1 mps 609 mmHg 90%
    03:00 +8°C° 0 mm 1 mps 609 mmHg 90%
    04:00 +8°C° 0 mm 1 mps 609 mmHg 85%
    05:00 +9°C° 0 mm 1 mps 610 mmHg 81%
    06:00 +10°C° 0 mm 1 mps 610 mmHg 77%
    07:00 +12°C° 0 mm 1 mps 611 mmHg 66%
    08:00 +14°C° 0 mm 1 mps 612 mmHg 56%
    09:00 +18°C° 0 mm 1 mps 613 mmHg 45%
    10:00 +18°C° 0 mm 1 mps 614 mmHg 44%
    11:00 +18°C° 0 mm 2 mps 614 mmHg 42%
    12:00 +19°C° 0 mm 2 mps 614 mmHg 41%
    13:00 +18°C° 0.1 mm 2 mps 614 mmHg 46%
    14:00 +18°C° 0.1 mm 2 mps 613 mmHg 52%
    15:00 +17°C° 0.1 mm 2 mps 613 mmHg 58%
    16:00 +16°C° 0.4 mm 1 mps 612 mmHg 66%
    17:00 +15°C° 0.4 mm 1 mps 612 mmHg 73%
    18:00 +14°C° 0.4 mm 1 mps 611 mmHg 81%
    19:00 +12°C° 0 mm 1 mps 611 mmHg 85%
    20:00 +11°C° 0 mm 1 mps 611 mmHg 90%
    21:00 +9°C° 0 mm 1 mps 610 mmHg 94%
    22:00 +9°C° 0 mm 1 mps 610 mmHg 93%
    23:00 +9°C° 0 mm 1 mps 610 mmHg 92%

    31 May, Sunday

    Time Temperature Precipitation Wind Pressure Humidity
    00:00 +9°C° 0 mm 1 mps 610 mmHg 92%
    01:00 +8°C° 0 mm 1 mps 609 mmHg 89%
    02:00 +8°C° 0 mm 1 mps 609 mmHg 87%
    03:00 +8°C° 0 mm 1 mps 609 mmHg 85%
    04:00 +9°C° 0 mm 1 mps 609 mmHg 80%
    05:00 +10°C° 0 mm 1 mps 610 mmHg 75%
    06:00 +11°C° 0 mm 1 mps 611 mmHg 70%
    07:00 +13°C° 0 mm 1 mps 611 mmHg 62%
    08:00 +15°C° 0 mm 1 mps 612 mmHg 54%
    09:00 +18°C° 0 mm 1 mps 613 mmHg 46%
    10:00 +18°C° 0 mm 2 mps 614 mmHg 43%
    11:00 +19°C° 0 mm 2 mps 614 mmHg 41%
    12:00 +20°C° 0 mm 2 mps 614 mmHg 38%
    13:00 +19°C° 0.1 mm 2 mps 613 mmHg 43%
    14:00 +19°C° 0.1 mm 2 mps 613 mmHg 47%
    15:00 +18°C° 0.1 mm 2 mps 612 mmHg 52%
    16:00 +18°C° 0.4 mm 1 mps 612 mmHg 59%
    17:00 +16°C° 0.4 mm 1 mps 611 mmHg 67%
    18:00 +14°C° 0.4 mm 0 mps 611 mmHg 75%
    19:00 +14°C° 0.2 mm 1 mps 610 mmHg 79%
    20:00 +12°C° 0.2 mm 1 mps 610 mmHg 82%
    21:00 +11°C° 0.2 mm 1 mps 610 mmHg 86%
    22:00 +10°C° 0.3 mm 1 mps 610 mmHg 86%
    23:00 +10°C° 0.3 mm 1 mps 609 mmHg 86%

    1 June, Monday

    Time Temperature Precipitation Wind Pressure Humidity
    00:00 +10°C° 0.3 mm 1 mps 609 mmHg 86%
    01:00 +10°C° 0.1 mm 1 mps 609 mmHg 86%
    02:00 +9°C° 0.1 mm 1 mps 609 mmHg 85%
    03:00 +9°C° 0.1 mm 1 mps 609 mmHg 85%
    04:00 +10°C° 0 mm 1 mps 609 mmHg 82%
    05:00 +11°C° 0 mm 1 mps 610 mmHg 80%
    06:00 +12°C° 0 mm 1 mps 610 mmHg 77%
    07:00 +13°C° 0.2 mm 1 mps 611 mmHg 72%
    08:00 +15°C° 0.2 mm 1 mps 611 mmHg 68%
    09:00 +18°C° 0.2 mm 1 mps 612 mmHg 63%
    10:00 +16°C° 1.1 mm 1 mps 612 mmHg 67%
    11:00 +16°C° 1.1 mm 1 mps 612 mmHg 70%
    12:00 +16°C° 1.1 mm 1 mps 611 mmHg 73%
    13:00 +15°C° 1.7 mm 1 mps 611 mmHg 78%
    14:00 +14°C° 1.7 mm 1 mps 610 mmHg 82%
    15:00 +13°C° 1.7 mm 1 mps 609 mmHg 87%
    16:00 +13°C° 0.7 mm 1 mps 609 mmHg 87%
    17:00 +13°C° 0.7 mm 1 mps 609 mmHg 88%
    18:00 +13°C° 0.7 mm 1 mps 609 mmHg 88%
    19:00 +12°C° 0.3 mm 1 mps 609 mmHg 89%
    20:00 +11°C° 0.3 mm 1 mps 609 mmHg 90%
    21:00 +9°C° 0.3 mm 1 mps 609 mmHg 92%
    22:00 +9°C° 0 mm 1 mps 609 mmHg 91%
    23:00 +9°C° 0 mm 1 mps 608 mmHg 89%
    Show more